Monterey, CA

9:32 PM PDT on July 20, 2017 (GMT -0700)
Monterey Peninsula

Weather History for KMRY - November, 2012

Change the Weather History Date:

Sunday, November 18, 2012

  Actual Average Record
Temperature  
Mean Temperature 55 °F 54 °F  
Max Temperature 62 °F 63 °F 82 °F (2005)
Min Temperature 47 °F 45 °F 38 °F (2000)
Degree Days  
Heating Degree Days 10    
Month to date heating degree days 149  
Since 1 July heating degree days 824  
Cooling Degree Days 0    
Month to date cooling degree days 10  
Year to date cooling degree days 36  
Growing Degree Days 4 (Base 50)    
Moisture  
Dew Point 50 °F    
Average Humidity 78    
Maximum Humidity 100    
Minimum Humidity 55    
Precipitation  
Precipitation 0.07 in - 1.57 in (1950)
Month to date precipitation 1.26  
Year to date precipitation 9.59  
Since 1 July precipitation 1.94  
Sea Level Pressure  
Sea Level Pressure 30.15 in    
Wind  
Wind Speed 3 mph (WSW)    
Max Wind Speed 13 mph    
Max Gust Speed 17 mph    
Visibility 9 miles    
Events      
T = Trace of Precipitation, MM = Missing Value Source: NWS Daily Summary

Daily Weather History Graph

Daily Weather History Graph

Search for Another Location

Airport or City:

Trip Planner

Search our weather history database for the weather conditions in past years. The results will help you decide how hot, cold, wet, or windy it might be!

Date:

Astronomy

Nov. 18, 2012 Rise Set
Actual Time 6:48 AM PST 4:56 PM PST
Civil Twilight 6:21 AM PST 5:24 PM PST
Nautical Twilight 5:49 AM PST 5:55 PM PST
Astronomical Twilight 5:18 AM PST 6:26 PM PST
Moon 11:20 AM PST (11/18) 10:19 PM PST (11/18)
Length of Visible Light 11h 03m
Length of Day
10h 07m
Waxing Crescent, 31% of the Moon is Illuminated
Nov 18
Waxing Crescent
Nov 20
First Quarter
Nov 28
Full
Dec 6
Last Quarter
Dec 13
New

Hourly Weather History & Observations

Time (PST) Temp. Dew Point Humidity Pressure Visibility Wind Dir Wind Speed Gust Speed Precip Events Conditions
12:54 AM 60.1 °F 53.1 °F 78% 30.06 in 10.0 mi SSE 9.2 mph - 0.01 in   Mostly Cloudy
1:54 AM 59.0 °F 54.0 °F 83% 30.06 in 3.0 mi SSE 6.9 mph - 0.02 in   Haze
2:54 AM 59.0 °F 55.0 °F 87% 30.07 in 4.0 mi SSW 5.8 mph - 0.03 in   Overcast
3:20 AM 55.4 °F 55.4 °F 100% 30.05 in 4.0 mi West 8.1 mph - 0.01 in   Overcast
3:39 AM 55.4 °F 53.6 °F 94% 30.05 in 10.0 mi WSW 4.6 mph - 0.01 in   Overcast
3:54 AM 55.9 °F 54.0 °F 93% 30.09 in 10.0 mi WSW 5.8 mph - 0.01 in   Overcast
4:41 AM 55.4 °F 53.6 °F 94% 30.06 in 10.0 mi Calm Calm - N/A   Overcast
4:54 AM 55.0 °F 52.0 °F 89% 30.10 in 10.0 mi Calm Calm - N/A   Overcast
5:54 AM 53.1 °F 51.1 °F 93% 30.12 in 10.0 mi Calm Calm - N/A   Mostly Cloudy
6:54 AM 51.1 °F 50.0 °F 96% 30.14 in 10.0 mi Calm Calm - N/A   Mostly Cloudy
7:54 AM 52.0 °F 51.1 °F 97% 30.16 in 10.0 mi North - - N/A   Clear
8:54 AM 57.0 °F 52.0 °F 83% 30.17 in 10.0 mi Calm Calm - N/A   Partly Cloudy
9:54 AM 60.1 °F 48.9 °F 67% 30.17 in 10.0 mi Calm Calm - N/A   Clear
10:35 AM 60.8 °F 48.2 °F 63% 30.14 in 10.0 mi WNW 3.5 mph - N/A   Mostly Cloudy
10:54 AM 60.1 °F 50.0 °F 69% 30.18 in 10.0 mi WNW 6.9 mph - N/A   Mostly Cloudy
11:11 AM 59.0 °F 51.8 °F 77% 30.14 in 9.0 mi NW 8.1 mph - N/A   Overcast
12:54 PM 60.1 °F 50.0 °F 69% 30.17 in 10.0 mi WNW 8.1 mph - N/A   Clear
1:54 PM 61.0 °F 44.1 °F 54% 30.17 in 10.0 mi SW 8.1 mph - N/A   Clear
2:54 PM 61.0 °F 44.1 °F 54% 30.18 in 10.0 mi West 3.5 mph - N/A   Clear
3:54 PM 59.0 °F 50.0 °F 72% 30.18 in 10.0 mi NW 4.6 mph - N/A   Clear
4:54 PM 57.0 °F 50.0 °F 77% 30.19 in 10.0 mi Calm Calm - N/A   Clear
5:54 PM 53.1 °F 48.9 °F 86% 30.19 in 10.0 mi Calm Calm - N/A   Clear
6:54 PM 52.0 °F 48.0 °F 86% 30.21 in 10.0 mi East 3.5 mph - N/A   Clear
7:54 PM 51.1 °F 46.9 °F 86% 30.22 in 10.0 mi Calm Calm - N/A   Clear
9:54 PM 50.0 °F 42.1 °F 74% 30.22 in 10.0 mi Calm Calm - N/A   Clear
10:54 PM 48.9 °F 41.0 °F 74% 30.23 in 10.0 mi East 4.6 mph - N/A   Clear
11:54 PM 48.0 °F 39.9 °F 74% 30.23 in 10.0 mi Calm Calm - N/A   Scattered Clouds